Regional Weather Roundup
Issued by NWS

Home | Current Version | Previous Version | Text Only | Print | Product List | Glossary On
Versions: 1 2 3 4 5 6 7 8 9 10 11 12 13 14 15 16 17 18 19 20 21 22 23 24 25 26 27
000
ASUS44 KLIX 111013
RWRLA
LOUISIANA WEATHER ROUNDUP
NATIONAL WEATHER SERVICE NEW ORLEANS LA
400 AM CST MON DEC 11 2017

NOTE: "FAIR" INDICATES FEW OR NO CLOUDS BELOW 12,000 FEET WITH NO
      SIGNIFICANT WEATHER AND/OR OBSTRUCTIONS TO VISIBILITY.
      SKY/WX - SKY CONDITION AND SIGNIFICANT WEATHER.
      TMP - AIR TEMPERATURE.    DP   - DEWPOINT TEMPERATURE.
      RH  - RELATIVE HUMIDITY.  PRES - PRESSURE.
      HX  - HEAT INDEX.         WCI  - WIND CHILL INDEX.

*  THESE STATIONS ARE NOT NWS OR FAA STATIONS AND ARE NOT UNDER
   NWS QUALITY CONTROL.

LAZ040-048-061>063-065-066-069-111100-
SOUTHEAST LOUISIANA

CITY           SKY/WX    TMP DP  RH WIND       PRES   REMARKS
N.O. INTL ARPT CLEAR     36  36 100 CALM      30.32S
N.O. LAKEFRONT CLEAR     46  40  79 SW8       30.32S
N.O. DOWNTOWN* FAIR      46  37  71 CALM      30.33S
RESERVE*       FAIR      38  35  90 CALM      30.32S
SLIDELL        PTCLDY    32  30  92 CALM      30.31S
BATON ROUGE    PTCLDY    35  33  92 CALM      30.31S
BOOTHVILLE     CLEAR     45  38  76 NW6       30.33S
BELLE CHASSE   CLEAR     31  31 100 CALM      30.32S FOG
BOGALUSA*      NOT AVBL
GALLIANO*      SUNNY     32  31  94 CALM      30.33S FOG
NEW ROADS*     FAIR      33  32  97 CALM      30.31S
GONZALES*      FAIR      35  33  95 CALM      30.32R
HAMMOND*       PTCLDY    32  32 100 CALM      30.31S
HOUMA*         PTCLDY    33  33 100 CALM      30.33S FOG
PORT FOURCHON* NOT AVBL

$$

LAZ041-044-053-054-111100-
SOUTHWEST LOUISIANA

CITY           SKY/WX    TMP DP  RH WIND       PRES   REMARKS
LAKE CHARLES   CLEAR     42  40  92 W5        30.32F
LAFAYETTE      PTCLDY    41  39  93 CALM      30.32S
PATTERSON      CLEAR     35  35 100 CALM      30.33S
SALT POINT       N/A     46  43  89 CALM      30.32S
NEW IBERIA     CLEAR     37  34  89 CALM      30.33S
CHENAULT AIRPK CLEAR     37  35  94 CALM      30.32F

$$

LAZ027-028-111100-
CENTRAL LOUISIANA

CITY           SKY/WX    TMP DP  RH WIND       PRES   REMARKS
FORT POLK      CLEAR     43  34  71 CALM      30.30R
ALEXANDRIA INT CLEAR     36  33  89 CALM      30.28R
ALEXANDRIA     CLEAR     31  31 100 SW3       30.28R

$$

LAZ001-002-111100-
NORTHWEST LOUISIANA

CITY           SKY/WX    TMP DP  RH WIND       PRES   REMARKS
SHREVEPORT     CLEAR     42  31  64 SW3       30.25S
BARKSDALE AFB  CLEAR     32  28  84 CALM      30.25S
DTN SHREVEPORT CLEAR     36  28  73 CALM      30.26S

$$

LAZ014-016-111100-
NORTHEAST LOUISIANA

CITY           SKY/WX    TMP DP  RH WIND       PRES   REMARKS
MONROE         CLEAR     38  32  79 CALM      30.25F
TALLULAH       CLEAR     33  30  88 CALM      30.25S

$$





USA.gov is the U.S. government's official web portal to all federal, state and local government web resources and services.